FW4499 Weather Reports


time (UTC)temp
C
wind
direction
speed
KPH
gust
KPH
rain 1hr
cm
rain 24hr
cm
rain mn
cm
humidity
%
barometer
mb
20260506161537 16 243 1.6 9.7 0.00 0.00 0.00 64 1007.8
20260506160036 17 234 1.6 12.9 0.00 0.00 0.00 63 1007.8
20260506154552 17 51 1.6 9.7 0.00 0.00 0.00 60 1008.1
20260506153033 17 75 3.2 14.5 0.00 0.00 0.00 60 1008.3
20260506151541 17 226 4.8 16.1 0.00 0.00 0.00 60 1008.2
20260506150038 16 276 1.6 12.9 0.00 0.00 0.00 61 1008.2
20260506144534 16 103 1.6 12.9 0.00 0.00 0.00 61 1008.3
20260506143042 16 80 1.6 12.9 0.00 0.00 0.00 61 1008.6
20260506141541 16 116 0.0 9.7 0.00 0.00 0.00 62 1008.6
20260506140041 16 256 1.6 11.3 0.00 0.00 0.00 62 1008.7
20260506134535 16 199 1.6 19.3 0.00 0.00 0.00 63 1008.5
20260506133036 15 165 1.6 12.9 0.00 0.00 0.00 64 1008.7
20260506131537 15 94 3.2 14.5 0.00 0.00 0.00 63 1008.1
20260506130041 15 189 0.0 8.0 0.00 0.00 0.00 65 1008.6
20260506124544 15 141 1.6 6.4 0.00 0.00 0.00 66 1008.6
20260506123037 15 238 0.0 4.8 0.00 0.00 0.00 66 1008.8
20260506121543 14 108 1.6 3.2 0.00 0.00 0.00 67 1009.0
20260506120039 13 304 1.6 11.3 0.00 0.00 0.00 68 1008.8
20260506114542 13 72 0.0 8.0 0.00 0.00 0.00 70 1008.8
20260506113041 13 300 0.0 4.8 0.00 0.00 0.00 71 1008.9
20260506111542 13 129 1.6 6.4 0.00 0.00 0.00 72 1008.9
20260506110040 13 121 0.0 4.8 0.00 0.00 0.00 73 1008.9
20260506104536 12 151 1.6 6.4 0.00 0.00 0.00 74 1008.9
20260506103034 12 0 0.0 6.4 0.00 0.00 0.00 74 1008.8
20260506101534 12 110 1.6 8.0 0.00 0.00 0.00 74 1008.9
20260506100040 12 221 0.0 6.4 0.00 0.00 0.00 73 1008.8
20260506094539 12 179 0.0 6.4 0.00 0.00 0.00 72 1008.7
20260506093036 12 124 0.0 6.4 0.00 0.00 0.00 71 1008.6
20260506091535 12 177 1.6 6.4 0.00 0.00 0.00 70 1008.6
20260506090046 12 94 0.0 6.4 0.00 0.00 0.00 69 1008.8
20260506084542 12 0 0.0 4.8 0.00 0.00 0.00 69 1008.9
20260506083041 12 129 0.0 9.7 0.00 0.00 0.00 68 1008.8
20260506081541 12 79 0.0 8.0 0.00 0.00 0.00 68 1009.0
20260506073034 12 217 0.0 9.7 0.00 0.00 0.00 67 1009.1
20260506071542 13 150 0.0 3.2 0.00 0.00 0.00 65 1009.0
20260506061535 14 148 0.0 4.8 0.00 0.00 0.00 62 1008.9
20260506044543 15 141 0.0 9.7 0.00 0.00 0.00 57 1009.7
20260506043036 15 139 0.0 8.0 0.00 0.00 0.00 56 1009.7
20260506041550 16 250 0.0 9.7 0.00 0.00 0.00 56 1009.8
20260506040035 16 96 0.0 12.9 0.00 0.00 0.00 55 1009.7
20260506034547 16 0 0.0 9.7 0.00 0.00 0.00 55 1009.7
20260506033039 16 0 3.2 9.7 0.00 0.00 0.00 55 1009.7
20260506031535 16 0 1.6 9.7 0.00 0.00 0.00 54 1009.7
20260506030038 16 143 1.6 8.0 0.00 0.00 0.00 54 1009.6
20260506024541 16 213 0.0 6.4 0.00 0.00 0.00 53 1009.5
20260506023043 16 293 0.0 8.0 0.00 0.00 0.00 53 1009.6
20260506021536 16 218 0.0 8.0 0.00 0.00 0.00 52 1009.5
20260506020034 16 225 0.0 11.3 0.00 0.00 0.00 51 1009.5
20260506014541 17 156 0.0 4.8 0.00 0.00 0.00 52 1009.4
20260506013051 17 128 0.0 8.0 0.00 0.00 0.00 52 1009.2
20260506011542 17 111 1.6 9.7 0.00 0.00 0.00 52 1009.0
20260506010037 17 142 1.6 8.0 0.00 0.00 0.00 52 1008.8
20260506004534 17 120 0.0 4.8 0.00 0.00 0.00 51 1008.6
20260506003041 17 102 0.0 12.9 0.00 0.00 0.00 50 1008.4
20260506001536 17 116 0.0 6.4 0.00 0.00 0.00 49 1008.2
20260506000036 18 115 1.6 14.5 0.00 0.00 0.00 47 1007.9
20260505234535 18 140 1.6 4.8 0.00 0.00 0.00 46 1007.7
20260505233034 19 214 0.0 6.4 0.00 0.00 0.00 45 1007.6
20260505231540 20 200 1.6 12.9 0.00 0.00 0.00 43 1007.4
20260505230107 20 68 0.0 9.7 0.00 0.00 0.00 42 1007.1
20260505224535 21 133 3.2 19.3 0.00 0.00 0.00 41 1007.0
20260505223038 21 87 3.2 17.7 0.00 0.00 0.00 40 1006.8
20260505221541 22 236 1.6 16.1 0.00 0.00 0.00 39 1006.7
20260505220051 22 93 3.2 12.9 0.00 0.00 0.00 36 1006.7
20260505214537 23 261 6.4 19.3 0.00 0.00 0.00 34 1006.9
20260505213035 23 247 4.8 17.7 0.00 0.00 0.00 32 1006.7
20260505211532 23 212 6.4 19.3 0.00 0.00 0.00 33 1006.6
20260505210035 23 211 6.4 25.7 0.00 0.00 0.00 34 1006.5
20260505204535 24 66 6.4 16.1 0.00 0.00 0.00 32 1006.5
20260505203036 25 212 4.8 17.7 0.00 0.00 0.00 32 1006.5
20260505201536 25 250 8.0 20.9 0.00 0.00 0.00 32 1006.5
20260505200043 25 281 4.8 20.9 0.00 0.00 0.00 31 1006.6
20260505194539 25 230 6.4 17.7 0.00 0.00 0.00 30 1006.7
20260505193052 25 127 4.8 25.7 0.00 0.00 0.00 30 1006.8
20260505191543 25 169 8.0 20.9 0.00 0.00 0.00 30 1006.9
20260505190038 25 228 8.0 22.5 0.00 0.00 0.00 28 1007.0
20260505184536 26 206 8.0 27.4 0.00 0.00 0.00 28 1007.5
20260505183038 26 212 11.3 29.0 0.00 0.00 0.00 26 1007.4
20260505181546 26 266 8.0 30.6 0.00 0.00 0.00 26 1007.6
20260505180040 26 184 4.8 27.4 0.00 0.00 0.00 28 1007.5
20260505174535 25 96 3.2 24.1 0.00 0.00 0.00 27 1007.6
20260505173035 25 56 6.4 25.7 0.00 0.00 0.00 27 1007.7
20260505171541 25 228 8.0 17.7 0.00 0.00 0.00 28 1007.8
20260505170041 24 222 6.4 22.5 0.00 0.00 0.00 30 1008.2
20260505164535 25 263 6.4 20.9 0.00 0.00 0.00 29 1008.6
20260505163036 25 109 3.2 20.9 0.00 0.00 0.00 32 1008.6